Find Starlink 34640

NORAD ID: 65092 Int'l Des: 2025-167 Owner: SPXS Country: US Constellation: starlink operational
LEOCIRCULAR

現在のビュー

3D地球を読み込み中...

Starlink 34640について

説明を読み込み中...

次回通過

Passes for default location (London). Set your location on the main map for personalized predictions.

高度履歴

Loading altitude history...

軌道要素

1 65092U 25167Q 26149.98278529 .00030121 00000-0 10247-2 0 9998
2 65092 53.1599 9.2376 0000861 88.9720 271.1379 15.30209832 45925
Epoch: May 29, 2026 • Age: 21 hours

現在のステータス

高度 478.8 km
速度 7.63 km/s
衛星直下点 43.05°N, 54.7°W
打ち上げ日 Aug 4, 2025
運用期間 0.8 years
タイプ internet

技術仕様

分類 Payload
質量 575.00 kg
乾燥質量 530.00 kg
総質量 575.00 kg
長さ 0.30 m
直径 4.10 m
スパン 29.00 m
形状 Box + pan
製造者 SPXS
バスタイプ Starlink V2MO
フェーズステータス In Orbit
所有者/国 SPXS/US

Most Searched